Year,Month,Day,Hour,Minute,Value (Times are PST for insolation in W/m^2)
2007,01,12,00,00,0.00
2007,01,12,00,01,0.00
2007,01,12,00,02,0.00
2007,01,12,00,03,0.00
2007,01,12,00,04,0.00
2007,01,12,00,05,0.00
2007,01,12,00,06,0.00
2007,01,12,00,07,0.00
2007,01,12,00,08,0.00
2007,01,12,00,09,0.00
2007,01,12,00,10,0.00
2007,01,12,00,11,0.00
2007,01,12,00,12,0.00
2007,01,12,01,02,0.00
2007,01,12,01,03,0.00
2007,01,12,01,04,0.00
2007,01,12,01,05,0.00
2007,01,12,01,06,0.00
2007,01,12,01,07,0.00
2007,01,12,01,08,0.00
2007,01,12,01,09,0.00
2007,01,12,01,10,0.00
2007,01,12,01,11,0.00
2007,01,12,01,12,0.00
2007,01,12,01,13,0.00
2007,01,12,01,14,0.00
2007,01,12,01,15,0.00
2007,01,12,01,16,0.00
2007,01,12,01,17,0.00
2007,01,12,01,18,0.00
2007,01,12,01,19,0.00
2007,01,12,01,20,0.00
2007,01,12,01,21,0.00
2007,01,12,01,22,0.00
2007,01,12,01,23,0.00
2007,01,12,01,24,0.00
2007,01,12,01,25,0.00
2007,01,12,01,26,0.00
2007,01,12,01,27,0.00
2007,01,12,01,28,0.00
2007,01,12,01,29,0.00
2007,01,12,01,30,0.00
2007,01,12,01,31,0.00
2007,01,12,01,32,0.00
2007,01,12,01,33,0.00
2007,01,12,01,34,0.00
2007,01,12,01,35,0.00
2007,01,12,01,36,0.00
2007,01,12,01,37,0.00
2007,01,12,01,38,0.00
2007,01,12,01,39,0.00
2007,01,12,01,40,0.00
2007,01,12,01,41,0.00
2007,01,12,01,42,0.00
2007,01,12,01,43,0.00
2007,01,12,01,44,0.00
2007,01,12,01,45,0.00
2007,01,12,01,46,0.00
2007,01,12,01,47,0.00
2007,01,12,01,48,0.00
2007,01,12,01,49,0.00
2007,01,12,01,50,0.00
2007,01,12,01,51,0.00
2007,01,12,01,52,0.00
2007,01,12,01,53,0.00
2007,01,12,01,54,0.00
2007,01,12,01,55,0.00
2007,01,12,01,56,0.00
2007,01,12,01,57,0.00
2007,01,12,01,58,0.00
2007,01,12,01,59,0.00
2007,01,12,02,00,0.00
2007,01,12,02,01,0.00
2007,01,12,02,02,0.00
2007,01,12,02,03,0.00
2007,01,12,02,04,0.00
2007,01,12,02,05,0.00
2007,01,12,02,06,0.00
2007,01,12,02,07,0.00
2007,01,12,02,08,0.00
2007,01,12,02,09,0.00
2007,01,12,02,10,0.00
2007,01,12,02,11,0.00
2007,01,12,02,12,0.00
2007,01,12,02,13,0.00
2007,01,12,02,14,0.00
2007,01,12,02,15,0.00
2007,01,12,02,16,0.00
2007,01,12,02,17,0.00
2007,01,12,02,18,0.00
2007,01,12,02,19,0.00
2007,01,12,02,20,0.00
2007,01,12,02,21,0.00
2007,01,12,02,22,0.00
2007,01,12,02,23,0.00
2007,01,12,02,24,0.00
2007,01,12,02,25,0.00
2007,01,12,02,26,0.00
2007,01,12,02,27,0.00
2007,01,12,02,28,0.00
2007,01,12,02,29,0.00
2007,01,12,02,30,0.00
2007,01,12,02,31,0.00
2007,01,12,02,32,0.00
2007,01,12,02,33,0.00
2007,01,12,02,34,0.00
2007,01,12,02,35,0.00
2007,01,12,02,36,0.00
2007,01,12,02,37,0.00
2007,01,12,02,38,0.00
2007,01,12,02,39,0.00
2007,01,12,02,40,0.00
2007,01,12,02,41,0.00
2007,01,12,02,42,0.00
2007,01,12,02,43,0.00
2007,01,12,02,44,0.00
2007,01,12,02,45,0.00
2007,01,12,02,46,0.00
2007,01,12,02,47,0.00
2007,01,12,02,48,0.00
2007,01,12,02,49,0.00
2007,01,12,02,50,0.00
2007,01,12,02,51,0.00
2007,01,12,02,52,0.00
2007,01,12,02,53,0.00
2007,01,12,02,54,0.00
2007,01,12,02,55,0.00
2007,01,12,02,56,0.00
2007,01,12,02,57,0.00
2007,01,12,02,58,0.00
2007,01,12,02,59,0.00
2007,01,12,03,00,0.00
2007,01,12,03,01,0.00
2007,01,12,03,02,0.00
2007,01,12,03,03,0.00
2007,01,12,03,04,0.00
2007,01,12,03,05,0.00
2007,01,12,03,06,0.00
2007,01,12,03,07,0.00
2007,01,12,03,08,0.00
2007,01,12,03,09,0.00
2007,01,12,03,10,0.00
2007,01,12,03,11,0.00
2007,01,12,03,12,0.00
2007,01,12,03,13,0.00
2007,01,12,03,14,0.00
2007,01,12,03,15,0.00
2007,01,12,03,16,0.00
2007,01,12,03,17,0.00
2007,01,12,03,18,0.00
2007,01,12,03,19,0.00
2007,01,12,03,20,0.00
2007,01,12,03,21,0.00
2007,01,12,03,22,0.00
2007,01,12,03,23,0.00
2007,01,12,03,24,0.00
2007,01,12,03,25,0.00
2007,01,12,03,26,0.00
2007,01,12,03,27,0.00
2007,01,12,03,28,0.00
2007,01,12,03,29,0.00
2007,01,12,03,30,0.00
2007,01,12,03,31,0.00
2007,01,12,03,32,0.00
2007,01,12,03,33,0.00
2007,01,12,03,34,0.00
2007,01,12,03,35,0.00
2007,01,12,03,36,0.00
2007,01,12,03,37,0.00
2007,01,12,03,38,0.00
2007,01,12,03,39,0.00
2007,01,12,03,40,0.00
2007,01,12,03,41,0.00
2007,01,12,03,42,0.00
2007,01,12,03,43,0.00
2007,01,12,03,44,0.00
2007,01,12,03,45,0.00
2007,01,12,03,46,0.00
2007,01,12,03,47,0.00
2007,01,12,03,48,0.00
2007,01,12,03,49,0.00
2007,01,12,03,50,0.00
2007,01,12,03,51,0.00
2007,01,12,03,52,0.00
2007,01,12,03,53,0.00
2007,01,12,03,54,0.00
2007,01,12,03,55,0.00
2007,01,12,03,56,0.00
2007,01,12,03,57,0.00
2007,01,12,03,58,0.00
2007,01,12,03,59,0.00
2007,01,12,04,00,0.00
2007,01,12,04,01,0.00
2007,01,12,04,02,0.00
2007,01,12,04,03,0.00
2007,01,12,04,04,0.00
2007,01,12,04,05,0.00
2007,01,12,04,06,0.00
2007,01,12,04,07,0.00
2007,01,12,04,08,0.00
2007,01,12,04,09,0.00
2007,01,12,04,10,0.00
2007,01,12,04,11,0.00
2007,01,12,04,12,0.00
2007,01,12,04,13,0.00
2007,01,12,04,14,0.00
2007,01,12,04,15,0.00
2007,01,12,04,16,0.00
2007,01,12,04,17,0.00
2007,01,12,04,18,0.00
2007,01,12,04,19,0.00
2007,01,12,04,20,0.00
2007,01,12,04,21,0.00
2007,01,12,04,22,0.00
2007,01,12,04,23,0.00
2007,01,12,04,24,0.00
2007,01,12,04,25,0.00
2007,01,12,04,26,0.00
2007,01,12,04,27,0.00
2007,01,12,04,28,0.00
2007,01,12,04,29,0.00
2007,01,12,04,30,0.00
2007,01,12,04,31,0.00
2007,01,12,04,32,0.00
2007,01,12,04,33,0.00
2007,01,12,04,34,0.00
2007,01,12,04,35,0.00
2007,01,12,04,36,0.00
2007,01,12,04,37,0.00
2007,01,12,04,38,0.00
2007,01,12,04,39,0.00
2007,01,12,04,40,0.00
2007,01,12,04,41,0.00
2007,01,12,04,42,0.00
2007,01,12,04,43,0.00
2007,01,12,04,44,0.00
2007,01,12,04,45,0.00
2007,01,12,04,46,0.00
2007,01,12,04,47,0.00
2007,01,12,04,48,0.00
2007,01,12,04,49,0.00
2007,01,12,04,50,0.00
2007,01,12,04,51,0.00
2007,01,12,04,52,0.00
2007,01,12,04,53,0.00
2007,01,12,04,54,0.00
2007,01,12,04,55,0.00
2007,01,12,04,56,0.00
2007,01,12,04,57,0.00
2007,01,12,04,58,0.00
2007,01,12,04,59,0.00
2007,01,12,05,00,0.00
2007,01,12,05,01,0.00
2007,01,12,05,02,0.00
2007,01,12,05,03,0.00
2007,01,12,05,04,0.00
2007,01,12,05,05,0.00
2007,01,12,05,06,0.00
2007,01,12,05,07,0.00
2007,01,12,05,08,0.00
2007,01,12,05,09,0.00
2007,01,12,05,10,0.00
2007,01,12,05,11,0.00
2007,01,12,05,12,0.00
2007,01,12,05,13,0.00
2007,01,12,05,14,0.00
2007,01,12,05,15,0.00
2007,01,12,05,16,0.00
2007,01,12,05,17,0.00
2007,01,12,05,18,0.00
2007,01,12,05,19,0.00
2007,01,12,05,20,0.00
2007,01,12,05,21,0.00
2007,01,12,05,22,0.00
2007,01,12,05,23,0.00
2007,01,12,05,24,0.00
2007,01,12,05,25,0.00
2007,01,12,05,26,0.00
2007,01,12,05,27,0.00
2007,01,12,05,28,0.00
2007,01,12,05,29,0.00
2007,01,12,05,30,0.00
2007,01,12,05,31,0.00
2007,01,12,05,32,0.00
2007,01,12,05,33,0.00
2007,01,12,05,34,0.00
2007,01,12,05,35,0.00
2007,01,12,05,36,0.00
2007,01,12,05,37,0.00
2007,01,12,05,38,0.00
2007,01,12,05,39,0.00
2007,01,12,05,40,0.00
2007,01,12,05,41,0.00
2007,01,12,05,42,0.00
2007,01,12,05,43,0.00
2007,01,12,05,44,0.00
2007,01,12,05,45,0.00
2007,01,12,05,46,0.00
2007,01,12,05,47,0.00
2007,01,12,05,48,0.00
2007,01,12,05,49,0.00
2007,01,12,05,50,0.00
2007,01,12,05,51,0.00
2007,01,12,05,52,0.00
2007,01,12,05,53,0.00
2007,01,12,05,54,0.00
2007,01,12,05,55,0.00
2007,01,12,05,56,0.00
2007,01,12,05,57,0.00
2007,01,12,05,58,0.00
2007,01,12,05,59,0.00
2007,01,12,06,00,0.00
2007,01,12,06,01,0.00
2007,01,12,06,02,0.00
2007,01,12,06,03,0.00
2007,01,12,06,04,0.00
2007,01,12,06,05,0.00
2007,01,12,06,06,0.00
2007,01,12,06,07,0.00
2007,01,12,06,08,0.00
2007,01,12,06,09,0.00
2007,01,12,06,10,0.00
2007,01,12,06,11,0.00
2007,01,12,06,12,0.00
2007,01,12,06,13,0.00
2007,01,12,06,14,0.00
2007,01,12,06,15,0.00
2007,01,12,06,16,0.00
2007,01,12,06,17,0.00
2007,01,12,06,18,0.00
2007,01,12,06,19,0.00
2007,01,12,06,20,0.00
2007,01,12,06,21,0.00
2007,01,12,06,22,0.00
2007,01,12,06,23,0.00
2007,01,12,06,24,0.00
2007,01,12,06,25,0.00
2007,01,12,06,26,0.00
2007,01,12,06,27,0.00
2007,01,12,06,28,0.00
2007,01,12,06,29,0.00
2007,01,12,06,30,0.00
2007,01,12,06,31,0.00
2007,01,12,06,32,0.00
2007,01,12,06,33,0.00
2007,01,12,06,34,0.00
2007,01,12,06,35,0.00
2007,01,12,06,36,0.00
2007,01,12,06,37,0.00
2007,01,12,06,38,0.00
2007,01,12,06,39,0.00
2007,01,12,06,40,0.00
2007,01,12,06,41,0.00
2007,01,12,06,42,0.00
2007,01,12,06,43,0.00
2007,01,12,06,44,0.00
2007,01,12,06,45,0.00
2007,01,12,06,46,0.00
2007,01,12,06,47,0.00
2007,01,12,06,48,0.00
2007,01,12,06,49,0.00
2007,01,12,06,50,0.00
2007,01,12,06,51,0.00
2007,01,12,06,52,0.00
2007,01,12,06,53,0.00
2007,01,12,06,54,0.00
2007,01,12,06,55,0.00
2007,01,12,06,56,0.00
2007,01,12,06,57,0.00
2007,01,12,06,58,0.00
2007,01,12,06,59,0.00
2007,01,12,07,00,0.00
2007,01,12,07,01,0.00
2007,01,12,07,02,0.00
2007,01,12,07,03,0.00
2007,01,12,07,04,0.00
2007,01,12,07,05,0.00
2007,01,12,07,06,0.00
2007,01,12,07,07,0.00
2007,01,12,07,08,0.00
2007,01,12,07,09,0.00
2007,01,12,07,10,0.00
2007,01,12,07,11,0.00
2007,01,12,07,12,0.00
2007,01,12,07,13,0.00
2007,01,12,07,14,0.00
2007,01,12,07,15,0.00
2007,01,12,07,16,0.00
2007,01,12,07,17,0.00
2007,01,12,07,18,0.00
2007,01,12,07,19,0.00
2007,01,12,07,20,0.00
2007,01,12,07,21,0.00
2007,01,12,07,22,0.00
2007,01,12,07,23,0.00
2007,01,12,07,24,0.00
2007,01,12,07,25,0.00
2007,01,12,07,26,0.00
2007,01,12,07,27,0.00
2007,01,12,07,28,0.00
2007,01,12,07,29,0.00
2007,01,12,07,30,0.00
2007,01,12,07,31,0.00
2007,01,12,07,32,0.00
2007,01,12,07,33,0.00
2007,01,12,07,34,0.00
2007,01,12,07,35,0.00
2007,01,12,07,36,0.00
2007,01,12,07,37,0.00
2007,01,12,07,38,0.00
2007,01,12,07,39,0.00
2007,01,12,07,40,0.00
2007,01,12,07,41,0.00
2007,01,12,07,42,0.00
2007,01,12,07,43,0.00
2007,01,12,07,44,0.00
2007,01,12,07,45,0.00
2007,01,12,07,46,0.00
2007,01,12,07,47,0.00
2007,01,12,07,48,0.00
2007,01,12,07,49,0.00
2007,01,12,07,50,0.00
2007,01,12,07,51,0.00
2007,01,12,07,52,0.00
2007,01,12,07,53,0.00
2007,01,12,07,54,0.00
2007,01,12,07,55,0.00
2007,01,12,07,56,0.00
2007,01,12,07,57,0.00
2007,01,12,07,58,0.00
2007,01,12,07,59,0.00
2007,01,12,08,00,0.00
2007,01,12,08,01,0.00
2007,01,12,08,02,0.00
2007,01,12,08,03,0.00
2007,01,12,08,04,0.00
2007,01,12,08,05,0.00
2007,01,12,08,06,0.00
2007,01,12,08,07,0.00
2007,01,12,08,08,0.00
2007,01,12,08,09,0.00
2007,01,12,08,10,0.00
2007,01,12,08,11,0.00
2007,01,12,08,12,0.00
2007,01,12,08,13,0.00
2007,01,12,08,14,0.00
2007,01,12,08,15,0.00
2007,01,12,08,16,0.00
2007,01,12,08,17,0.00
2007,01,12,08,18,0.00
2007,01,12,08,19,0.00
2007,01,12,08,20,0.00
2007,01,12,08,21,0.00
2007,01,12,08,22,0.00
2007,01,12,08,23,0.00
2007,01,12,08,24,0.00
2007,01,12,08,25,0.00
2007,01,12,08,26,0.00
2007,01,12,08,27,0.00
2007,01,12,08,28,0.00
2007,01,12,08,29,0.00
2007,01,12,08,30,0.00
2007,01,12,08,31,0.00
2007,01,12,08,32,0.00
2007,01,12,08,33,0.00
2007,01,12,08,34,0.00
2007,01,12,08,35,0.00
2007,01,12,08,36,0.00
2007,01,12,08,37,0.00
2007,01,12,08,38,0.00
2007,01,12,08,39,0.00
2007,01,12,08,40,0.00
2007,01,12,08,41,0.00
2007,01,12,08,42,0.00
2007,01,12,08,43,0.00
2007,01,12,08,44,2.80
2007,01,12,08,45,6.10
2007,01,12,08,46,9.20
2007,01,12,08,47,13.80
2007,01,12,08,48,17.10
2007,01,12,08,49,18.50
2007,01,12,08,50,19.00
2007,01,12,08,51,19.00
2007,01,12,08,52,19.00
2007,01,12,08,53,17.30
2007,01,12,08,54,14.90
2007,01,12,08,55,14.00
2007,01,12,08,56,11.20
2007,01,12,08,57,10.10
2007,01,12,08,58,11.00
2007,01,12,08,59,11.60
2007,01,12,09,00,12.00
2007,01,12,09,01,9.10
2007,01,12,09,02,5.90
2007,01,12,09,03,5.00
2007,01,12,09,04,5.00
2007,01,12,09,05,5.00
2007,01,12,09,06,5.00
2007,01,12,09,07,5.00
2007,01,12,09,08,6.10
2007,01,12,09,09,9.80
2007,01,12,09,10,18.00
2007,01,12,09,11,26.90
2007,01,12,09,12,30.00
2007,01,12,09,13,30.00
2007,01,12,09,14,30.00
2007,01,12,09,15,30.00
2007,01,12,09,16,31.10
2007,01,12,09,17,29.80
2007,01,12,09,18,25.20
2007,01,12,09,19,18.80
2007,01,12,09,20,17.20
2007,01,12,09,21,22.60
2007,01,12,09,22,29.30
2007,01,12,09,23,29.80
2007,01,12,09,24,21.40
2007,01,12,09,25,11.10
2007,01,12,09,26,7.00
2007,01,12,09,27,7.00
2007,01,12,09,28,7.00
2007,01,12,09,29,7.00
2007,01,12,09,30,7.00
2007,01,12,09,31,7.00
2007,01,12,09,32,7.00
2007,01,12,09,33,8.10
2007,01,12,09,34,10.10
2007,01,12,09,35,13.80
2007,01,12,09,36,23.70
2007,01,12,09,37,35.00
2007,01,12,09,38,39.50
2007,01,12,09,39,41.10
2007,01,12,09,40,42.00
2007,01,12,09,41,42.00
2007,01,12,09,42,42.00
2007,01,12,09,43,43.20
2007,01,12,09,44,44.00
2007,01,12,09,45,44.00
2007,01,12,09,46,44.00
2007,01,12,09,47,41.20
2007,01,12,09,48,31.30
2007,01,12,09,49,21.40
2007,01,12,09,50,25.40
2007,01,12,09,51,33.80
2007,01,12,09,52,32.00
2007,01,12,09,53,26.40
2007,01,12,09,54,21.70
2007,01,12,09,55,20.10
2007,01,12,09,56,30.90
2007,01,12,09,57,43.80
2007,01,12,09,58,48.20
2007,01,12,09,59,50.20
2007,01,12,10,00,51.00
2007,01,12,10,01,51.00
2007,01,12,10,02,52.10
2007,01,12,10,03,53.00
2007,01,12,10,04,53.00
2007,01,12,10,05,53.60
2007,01,12,10,06,54.00
2007,01,12,10,07,54.00
2007,01,12,10,08,54.00
2007,01,12,10,09,55.20
2007,01,12,10,10,56.00
2007,01,12,10,11,56.00
2007,01,12,10,12,56.00
2007,01,12,10,13,57.20
2007,01,12,10,14,58.00
2007,01,12,10,15,58.00
2007,01,12,10,16,58.00
2007,01,12,10,17,59.20
2007,01,12,10,18,60.00
2007,01,12,10,19,60.00
2007,01,12,10,20,61.10
2007,01,12,10,21,62.00
2007,01,12,10,22,62.00
2007,01,12,10,23,62.50
2007,01,12,10,24,63.00
2007,01,12,10,25,63.00
2007,01,12,10,26,62.50
2007,01,12,10,27,62.50
2007,01,12,10,28,63.00
2007,01,12,10,29,50.30
2007,01,12,10,30,44.20
2007,01,12,10,31,57.80
2007,01,12,10,32,34.30
2007,01,12,10,33,13.10
2007,01,12,10,34,29.40
2007,01,12,10,35,28.20
2007,01,12,10,36,20.20
2007,01,12,10,37,28.70
2007,01,12,10,38,33.30
2007,01,12,10,39,28.10
2007,01,12,10,40,23.90
2007,01,12,10,41,28.50
2007,01,12,10,42,36.30
2007,01,12,10,43,30.20
2007,01,12,10,44,21.90
2007,01,12,10,45,19.80
2007,01,12,10,46,18.50
2007,01,12,10,47,18.60
2007,01,12,10,48,19.00
2007,01,12,10,49,19.00
2007,01,12,10,50,19.00
2007,01,12,10,51,20.20
2007,01,12,10,52,22.10
2007,01,12,10,53,24.10
2007,01,12,10,54,25.60
2007,01,12,10,55,27.10
2007,01,12,10,56,35.70
2007,01,12,10,57,37.00
2007,01,12,10,58,32.40
2007,01,12,10,59,30.90
2007,01,12,11,00,33.80
2007,01,12,11,01,35.80
2007,01,12,11,02,31.10
2007,01,12,11,03,28.00
2007,01,12,11,04,26.80
2007,01,12,11,05,25.40
2007,01,12,11,06,25.00
2007,01,12,11,07,25.00
2007,01,12,11,08,25.00
2007,01,12,11,09,25.00
2007,01,12,11,10,25.50
2007,01,12,11,11,26.00
2007,01,12,11,12,25.50
2007,01,12,11,13,25.00
2007,01,12,11,14,25.50
2007,01,12,11,15,27.10
2007,01,12,11,16,34.60
2007,01,12,11,17,54.10
2007,01,12,11,18,51.20
2007,01,12,11,19,49.90
2007,01,12,11,20,80.00
2007,01,12,11,21,69.40
2007,01,12,11,22,38.50
2007,01,12,11,23,32.50
2007,01,12,11,24,30.90
2007,01,12,11,25,30.00
2007,01,12,11,26,36.60
2007,01,12,11,27,37.00
2007,01,12,11,28,36.30
2007,01,12,11,29,41.80
2007,01,12,11,30,60.20
2007,01,12,11,31,80.80
2007,01,12,11,32,69.30
2007,01,12,11,33,41.30
2007,01,12,11,34,32.00
2007,01,12,11,35,35.80
2007,01,12,11,36,37.90
2007,01,12,11,37,37.00
2007,01,12,11,38,49.70
2007,01,12,11,39,78.60
2007,01,12,11,40,67.80
2007,01,12,11,41,40.50
2007,01,12,11,42,30.90
2007,01,12,11,43,30.00
2007,01,12,11,44,31.10
2007,01,12,11,45,40.20
2007,01,12,11,46,40.40
2007,01,12,11,47,33.90
2007,01,12,11,48,35.20
2007,01,12,11,49,34.20
2007,01,12,11,50,32.00
2007,01,12,11,51,32.50
2007,01,12,11,52,33.00
2007,01,12,11,53,34.20
2007,01,12,11,54,33.30
2007,01,12,11,55,32.00
2007,01,12,11,56,33.80
2007,01,12,11,57,36.20
2007,01,12,11,58,40.80
2007,01,12,11,59,74.80
2007,01,12,12,00,71.80
2007,01,12,12,01,42.00
2007,01,12,12,02,32.40
2007,01,12,12,03,32.00
2007,01,12,12,04,32.00
2007,01,12,12,05,32.00
2007,01,12,12,06,30.90
2007,01,12,12,07,30.00
2007,01,12,12,08,35.00
2007,01,12,12,09,71.40
2007,01,12,12,10,98.00
2007,01,12,12,11,62.20
2007,01,12,12,12,27.20
2007,01,12,12,13,21.90
2007,01,12,12,14,19.90
2007,01,12,12,15,19.00
2007,01,12,12,16,26.10
2007,01,12,12,17,61.70
2007,01,12,12,18,94.80
2007,01,12,12,19,102.00
2007,01,12,12,20,102.00
2007,01,12,12,21,103.10
2007,01,12,12,22,104.00
2007,01,12,12,23,105.70
2007,01,12,12,24,108.10
2007,01,12,12,25,111.20
2007,01,12,12,26,113.60
2007,01,12,12,27,115.10
2007,01,12,12,28,117.10
2007,01,12,12,29,119.10
2007,01,12,12,30,120.60
2007,01,12,12,31,121.00
2007,01,12,12,32,122.10
2007,01,12,12,33,123.00
2007,01,12,12,34,123.00
2007,01,12,12,35,124.10
2007,01,12,12,36,126.20
2007,01,12,12,37,127.60
2007,01,12,12,38,127.40
2007,01,12,12,39,99.50
2007,01,12,12,40,105.10
2007,01,12,12,41,92.20
2007,01,12,12,42,55.30
2007,01,12,12,43,99.60
2007,01,12,12,44,128.40
2007,01,12,12,45,137.20
2007,01,12,12,46,101.80
2007,01,12,12,47,72.20
2007,01,12,12,48,121.70
2007,01,12,12,49,146.20
2007,01,12,12,50,117.60
2007,01,12,12,51,92.30
2007,01,12,12,52,88.80
2007,01,12,12,53,94.30
2007,01,12,12,54,76.60
2007,01,12,12,55,60.10
2007,01,12,12,56,55.80
2007,01,12,12,57,55.20
2007,01,12,12,58,111.00
2007,01,12,12,59,124.10
2007,01,12,13,00,112.80
2007,01,12,13,01,98.60
2007,01,12,13,02,64.30
2007,01,12,13,03,52.20
2007,01,12,13,04,49.80
2007,01,12,13,05,47.80
2007,01,12,13,06,46.50
2007,01,12,13,07,44.80
2007,01,12,13,08,42.80
2007,01,12,13,09,43.10
2007,01,12,13,10,45.20
2007,01,12,13,11,50.40
2007,01,12,13,12,53.40
2007,01,12,13,13,49.50
2007,01,12,13,14,45.30
2007,01,12,13,15,42.80
2007,01,12,13,16,42.00
2007,01,12,13,17,39.10
2007,01,12,13,18,35.90
2007,01,12,13,19,33.90
2007,01,12,13,20,33.00
2007,01,12,13,21,32.50
2007,01,12,13,22,32.00
2007,01,12,13,23,30.90
2007,01,12,13,24,30.00
2007,01,12,13,25,30.00
2007,01,12,13,26,30.00
2007,01,12,13,27,30.00
2007,01,12,13,28,30.00
2007,01,12,13,29,28.80
2007,01,12,13,30,28.00
2007,01,12,13,31,28.00
2007,01,12,13,32,28.00
2007,01,12,13,33,26.90
2007,01,12,13,34,26.00
2007,01,12,13,35,26.00
2007,01,12,13,36,25.40
2007,01,12,13,37,25.00
2007,01,12,13,38,23.90
2007,01,12,13,39,23.00
2007,01,12,13,40,23.00
2007,01,12,13,41,23.00
2007,01,12,13,42,21.90
2007,01,12,13,43,21.00
2007,01,12,13,44,21.00
2007,01,12,13,45,19.80
2007,01,12,13,46,19.00
2007,01,12,13,47,19.00
2007,01,12,13,48,19.00
2007,01,12,13,49,18.50
2007,01,12,13,50,18.00
2007,01,12,13,51,18.00
2007,01,12,13,52,18.00
2007,01,12,13,53,18.00
2007,01,12,13,54,18.00
2007,01,12,13,55,18.00
2007,01,12,13,56,18.00
2007,01,12,13,57,18.00
2007,01,12,13,58,18.00
2007,01,12,13,59,18.00
2007,01,12,14,00,18.00
2007,01,12,14,01,18.00
2007,01,12,14,02,18.00
2007,01,12,14,03,18.00
2007,01,12,14,04,18.00
2007,01,12,14,05,18.00
2007,01,12,14,06,18.00
2007,01,12,14,07,18.00
2007,01,12,14,08,18.00
2007,01,12,14,09,18.00
2007,01,12,14,10,18.00
2007,01,12,14,11,18.00
2007,01,12,14,12,18.50
2007,01,12,14,13,19.00
2007,01,12,14,14,19.00
2007,01,12,14,15,19.00
2007,01,12,14,16,20.10
2007,01,12,14,17,23.30
2007,01,12,14,18,25.50
2007,01,12,14,19,28.20
2007,01,12,14,20,31.70
2007,01,12,14,21,36.80
2007,01,12,14,22,43.30
2007,01,12,14,23,46.50
2007,01,12,14,24,48.20
2007,01,12,14,25,51.20
2007,01,12,14,26,50.80
2007,01,12,14,27,47.90
2007,01,12,14,28,46.50
2007,01,12,14,29,43.70
2007,01,12,14,30,42.00
2007,01,12,14,31,42.00
2007,01,12,14,32,43.10
2007,01,12,14,33,44.00
2007,01,12,14,34,44.00
2007,01,12,14,35,44.00
2007,01,12,14,36,41.80
2007,01,12,14,37,39.50
2007,01,12,14,38,37.80
2007,01,12,14,39,37.00
2007,01,12,14,40,35.90
2007,01,12,14,41,36.10
2007,01,12,14,42,35.90
2007,01,12,14,43,35.00
2007,01,12,14,44,35.00
2007,01,12,14,45,36.10
2007,01,12,14,46,35.90
2007,01,12,14,47,35.00
2007,01,12,14,48,33.90
2007,01,12,14,49,34.10
2007,01,12,14,50,36.10
2007,01,12,14,51,38.10
2007,01,12,14,52,39.50
2007,01,12,14,53,41.10
2007,01,12,14,54,42.00
2007,01,12,14,55,42.00
2007,01,12,14,56,42.00
2007,01,12,14,57,43.20
2007,01,12,14,58,41.70
2007,01,12,14,59,39.50
2007,01,12,15,00,40.70
2007,01,12,15,01,49.70
2007,01,12,15,02,51.00
2007,01,12,15,03,44.40
2007,01,12,15,04,40.30
2007,01,12,15,05,39.00
2007,01,12,15,06,47.20
2007,01,12,15,07,57.30
2007,01,12,15,08,56.80
2007,01,12,15,09,59.00
2007,01,12,15,10,50.30
2007,01,12,15,11,37.20
2007,01,12,15,12,40.00
2007,01,12,15,13,40.20
2007,01,12,15,14,35.90
2007,01,12,15,15,33.30
2007,01,12,15,16,29.80
2007,01,12,15,17,28.00
2007,01,12,15,18,26.90
2007,01,12,15,19,25.50
2007,01,12,15,20,22.80
2007,01,12,15,21,21.00
2007,01,12,15,22,19.90
2007,01,12,15,23,19.00
2007,01,12,15,24,18.50
2007,01,12,15,25,18.00
2007,01,12,15,26,15.80
2007,01,12,15,27,12.90
2007,01,12,15,28,11.40
2007,01,12,15,29,9.90
2007,01,12,15,30,9.00
2007,01,12,15,31,9.00
2007,01,12,15,32,9.00
2007,01,12,15,33,7.90
2007,01,12,15,34,7.00
2007,01,12,15,35,7.00
2007,01,12,15,36,7.00
2007,01,12,15,37,7.00
2007,01,12,15,38,7.00
2007,01,12,15,39,7.00
2007,01,12,15,40,7.00
2007,01,12,15,41,7.00
2007,01,12,15,42,7.00
2007,01,12,15,43,7.00
2007,01,12,15,44,7.00
2007,01,12,15,45,7.00
2007,01,12,15,46,7.00
2007,01,12,15,47,8.10
2007,01,12,15,48,10.10
2007,01,12,15,49,9.90
2007,01,12,15,50,9.00
2007,01,12,15,51,10.10
2007,01,12,15,52,12.60
2007,01,12,15,53,14.00
2007,01,12,15,54,14.00
2007,01,12,15,55,14.00
2007,01,12,15,56,16.10
2007,01,12,15,57,16.90
2007,01,12,15,58,14.90
2007,01,12,15,59,19.00
2007,01,12,16,00,26.90
2007,01,12,16,01,28.90
2007,01,12,16,02,24.10
2007,01,12,16,03,18.20
2007,01,12,16,04,17.10
2007,01,12,16,05,16.90
2007,01,12,16,06,14.90
2007,01,12,16,07,12.40
2007,01,12,16,08,11.00
2007,01,12,16,09,11.00
2007,01,12,16,10,11.00
2007,01,12,16,11,9.90
2007,01,12,16,12,9.00
2007,01,12,16,13,9.00
2007,01,12,16,14,9.00
2007,01,12,16,15,7.90
2007,01,12,16,16,7.00
2007,01,12,16,17,7.00
2007,01,12,16,18,7.00
2007,01,12,16,19,7.00
2007,01,12,16,20,7.00
2007,01,12,16,21,7.00
2007,01,12,16,22,7.00
2007,01,12,16,23,5.90
2007,01,12,16,24,5.00
2007,01,12,16,25,2.20
2007,01,12,16,26,0.00
2007,01,12,16,27,0.00
2007,01,12,16,28,0.00
2007,01,12,16,29,0.00
2007,01,12,16,30,0.00
2007,01,12,16,31,0.00
2007,01,12,16,32,0.00
2007,01,12,16,33,0.00
2007,01,12,16,34,0.00
2007,01,12,16,35,0.00
2007,01,12,16,36,0.00
2007,01,12,16,37,0.00
2007,01,12,16,38,0.00
2007,01,12,16,39,0.00
2007,01,12,16,40,0.00
2007,01,12,16,41,0.00
2007,01,12,16,42,0.00
2007,01,12,16,43,0.00
2007,01,12,16,44,0.00
2007,01,12,16,45,0.00
2007,01,12,16,46,0.00
2007,01,12,16,47,0.00
2007,01,12,16,48,0.00
2007,01,12,16,49,0.00
2007,01,12,16,50,0.00
2007,01,12,16,51,0.00
2007,01,12,16,52,0.00
2007,01,12,16,53,0.00
2007,01,12,16,54,0.00
2007,01,12,16,55,0.00
2007,01,12,16,56,0.00
2007,01,12,16,57,0.00
2007,01,12,16,58,0.00
2007,01,12,16,59,0.00
2007,01,12,17,00,0.00
2007,01,12,17,01,0.00
2007,01,12,17,02,0.00
2007,01,12,17,03,0.00
2007,01,12,17,04,0.00
2007,01,12,17,05,0.00
2007,01,12,17,06,0.00
2007,01,12,17,07,0.00
2007,01,12,17,08,0.00
2007,01,12,17,09,0.00
2007,01,12,17,10,0.00
2007,01,12,17,11,0.00
2007,01,12,17,12,0.00
2007,01,12,17,13,0.00
2007,01,12,17,14,0.00
2007,01,12,17,15,0.00
2007,01,12,17,16,0.00
2007,01,12,17,17,0.00
2007,01,12,17,18,0.00
2007,01,12,17,19,0.00
2007,01,12,17,20,0.00
2007,01,12,17,21,0.00
2007,01,12,17,22,0.00
2007,01,12,17,23,0.00
2007,01,12,17,24,0.00
2007,01,12,17,25,0.00
2007,01,12,17,26,0.00
2007,01,12,17,27,0.00
2007,01,12,17,28,0.00
2007,01,12,17,29,0.00
2007,01,12,17,30,0.00
2007,01,12,17,31,0.00
2007,01,12,17,32,0.00
2007,01,12,17,33,0.00
2007,01,12,17,34,0.00
2007,01,12,17,35,0.00
2007,01,12,17,36,0.00
2007,01,12,17,37,0.00
2007,01,12,17,38,0.00
2007,01,12,17,39,0.00
2007,01,12,17,40,0.00
2007,01,12,17,41,0.00
2007,01,12,17,42,0.00
2007,01,12,17,43,0.00
2007,01,12,17,44,0.00
2007,01,12,17,45,0.00
2007,01,12,17,46,0.00
2007,01,12,17,47,0.00
2007,01,12,17,48,0.00
2007,01,12,17,49,0.00
2007,01,12,17,50,0.00
2007,01,12,17,51,0.00
2007,01,12,17,52,0.00
2007,01,12,17,53,0.00
2007,01,12,17,54,0.00
2007,01,12,17,55,0.00
2007,01,12,17,56,0.00
2007,01,12,17,57,0.00
2007,01,12,17,58,0.00
2007,01,12,17,59,0.00
2007,01,12,18,00,0.00
2007,01,12,18,01,0.00
2007,01,12,18,02,0.00
2007,01,12,18,03,0.00
2007,01,12,18,04,0.00
2007,01,12,18,05,0.00
2007,01,12,18,06,0.00
2007,01,12,18,07,0.00
2007,01,12,18,08,0.00
2007,01,12,18,09,0.00
2007,01,12,18,10,0.00
2007,01,12,18,11,0.00
2007,01,12,18,12,0.00
2007,01,12,18,13,0.00
2007,01,12,18,14,0.00
2007,01,12,18,15,0.00
2007,01,12,18,16,0.00
2007,01,12,18,17,0.00
2007,01,12,18,18,0.00
2007,01,12,18,19,0.00
2007,01,12,18,20,0.00
2007,01,12,18,21,0.00
2007,01,12,18,22,0.00
2007,01,12,18,23,0.00
2007,01,12,18,24,0.00
2007,01,12,18,25,0.00
2007,01,12,18,26,0.00
2007,01,12,18,27,0.00
2007,01,12,18,28,0.00
2007,01,12,18,29,0.00
2007,01,12,18,30,0.00
2007,01,12,18,31,0.00
2007,01,12,18,32,0.00
2007,01,12,18,33,0.00
2007,01,12,18,34,0.00
2007,01,12,18,35,0.00